Simultaneous Nadir Overpasses (SNOs) Predictions

Prediction of SNOs between METOP-C and LANDSAT-8 Satellite Orbit:

Table of predicted SNOs for the next 14.0 days since TLE Epoch: 12/28/2024
Index Date (METOP-C) Time (METOP-C) Lat,Lon (METOP-C) SZA (METOP-C ) Date (LANDSAT-8) Time (LANDSAT-8) Lat,Lon (LANDSAT-8) SZA (LANDSAT-8 ) Distance(km) Time Diff (sec)
1 12/30/2024 18:06:54 81.09, -52.72 105.97 12/30/2024 18:08:00 81.09, -52.65 106.00 1.29 66
2 12/30/2024 18:57:32 -81.13, 115.62 73.92 12/30/2024 18:57:25 -81.14, 115.66 73.91 1.03 7
3 01/02/2025 13:41:13 81.10, 13.99 105.74 01/02/2025 13:42:12 81.10, 13.87 105.74 2.23 59
4 01/02/2025 14:31:52 -81.13,-178.05 74.20 01/02/2025 14:31:38 -81.12,-178.17 74.22 2.23 14
5 01/05/2025 09:15:33 81.09, 80.17 105.38 01/05/2025 09:16:23 81.10, 80.35 105.42 3.22 50
6 01/05/2025 10:06:11 -81.13,-111.49 74.51 01/05/2025 10:05:49 -81.12,-111.66 74.54 3.07 22
7 01/08/2025 04:49:50 81.12, 147.32 105.09 01/08/2025 04:50:32 81.12, 147.18 105.09 2.47 42
8 01/08/2025 05:40:29 -81.14, -44.72 74.85 01/08/2025 05:39:58 -81.14, -44.82 74.87 1.84 31
9 01/11/2025 00:24:08 81.11,-146.43 104.63 01/11/2025 00:24:40 81.12,-146.39 104.65 0.87 32



Historial Predications of SNOs between METOP-C and LANDSAT-8
